TimeCDT,TemperatureF,Dew PointF,Humidity,Sea Level PressureIn,VisibilityMPH,Wind Direction,Wind SpeedMPH,Gust SpeedMPH,PrecipitationIn,Events,Conditions,WindDirDegrees,DateUTC
12:54 AM,35.1,27.0,72,30.25,10.0,Calm,Calm,-,N/A,,Clear,0,2013-04-04 05:54:00
1:54 AM,32.0,27.0,82,30.25,10.0,WSW,3.5,-,N/A,,Clear,250,2013-04-04 06:54:00
2:54 AM,30.9,26.1,82,30.22,10.0,Calm,Calm,-,N/A,,Clear,0,2013-04-04 07:54:00
3:54 AM,30.0,26.1,85,30.21,10.0,Calm,Calm,-,N/A,,Clear,0,2013-04-04 08:54:00
4:54 AM,28.9,25.0,85,30.20,10.0,Calm,Calm,-,N/A,,Clear,0,2013-04-04 09:54:00
5:54 AM,27.0,24.1,89,30.20,10.0,Calm,Calm,-,N/A,,Clear,0,2013-04-04 10:54:00
6:54 AM,27.0,21.9,81,30.22,10.0,Calm,Calm,-,N/A,,Scattered Clouds,0,2013-04-04 11:54:00
7:54 AM,33.1,28.0,82,30.22,10.0,Calm,Calm,-,N/A,,Clear,0,2013-04-04 12:54:00
8:54 AM,42.1,28.0,58,30.20,10.0,Calm,Calm,-,N/A,,Scattered Clouds,0,2013-04-04 13:54:00
9:54 AM,46.9,26.1,44,30.17,10.0,Calm,Calm,-,N/A,,Partly Cloudy,0,2013-04-04 14:54:00
10:54 AM,51.1,19.0,28,30.16,10.0,NE,5.8,-,N/A,,Partly Cloudy,40,2013-04-04 15:54:00
11:54 AM,53.1,21.0,29,30.15,10.0,Calm,Calm,-,N/A,,Partly Cloudy,0,2013-04-04 16:54:00
12:54 PM,55.0,19.9,25,30.12,10.0,Calm,Calm,-,N/A,,Partly Cloudy,0,2013-04-04 17:54:00
1:54 PM,57.0,21.9,26,30.10,10.0,NNE,9.2,-,N/A,,Partly Cloudy,30,2013-04-04 18:54:00
2:54 PM,57.9,21.9,25,30.09,10.0,Variable,5.8,-,N/A,,Scattered Clouds,0,2013-04-04 19:54:00
3:54 PM,60.1,21.0,22,30.06,10.0,NNW,8.1,-,N/A,,Scattered Clouds,340,2013-04-04 20:54:00
4:54 PM,60.1,19.0,20,30.06,10.0,NW,5.8,-,N/A,,Scattered Clouds,310,2013-04-04 21:54:00
5:54 PM,59.0,21.0,23,30.06,10.0,Variable,3.5,-,N/A,,Mostly Cloudy,0,2013-04-04 22:54:00
6:54 PM,57.0,23.0,27,30.06,10.0,NNW,4.6,-,N/A,,Partly Cloudy,340,2013-04-04 23:54:00
7:54 PM,46.9,30.0,52,30.06,10.0,Calm,Calm,-,N/A,,Clear,0,2013-04-05 00:54:00
8:54 PM,43.0,28.9,58,30.07,10.0,Calm,Calm,-,N/A,,Clear,0,2013-04-05 01:54:00
9:54 PM,39.0,30.0,70,30.08,10.0,WSW,3.5,-,N/A,,Clear,250,2013-04-05 02:54:00
10:54 PM,39.0,28.9,67,30.08,10.0,West,3.5,-,N/A,,Clear,260,2013-04-05 03:54:00
11:54 PM,36.0,28.0,73,30.08,10.0,Calm,Calm,-,N/A,,Clear,0,2013-04-05 04:54:00